Weather in Saint John's

Canada     47°33′42″N   52°42′43″W
temp.,
°C
wind,
m/s
gust,
m/s
humid.,
%
clouds,
%
prec.,
mm/h
press.,
hPa
HPBL,
m
8 august, mon
mon800:30+19sw61596100 0.0 1009393
03:30+19wsw6159699 0.0 1008406
06:30+19wsw51396100 0.1 1008355
09:30+20w51390100 0.1 1008476
12:30+23w5965100 0.3 1009871
15:30+21ne5461100 0.3 1011533
18:30+15ne5976100 0.0 1013429
21:30+13ne398676 0.0 1016346
9 august, tue
tue900:30+12ne269796 0.0 1017157
03:30+12ne3793100 0.0 1018299
06:30+12ne3690100 0.0 1019370
09:30+12ene4787100 0.1 1020508
12:30+12ese4792100 0.6 1020579
15:30+12e4795100 1.6 1019615
18:30+12ene71198100 7.4 1018658
21:30+12e71198100 18.5 1018732
10 august, wed
wed1000:30+13e81398100 6.2 1016764
03:30+13ene71297100 6.5 1015675
06:30+13ene71195100 0.1 1016814
09:30+13ene71092100 0.4 1018895
12:30+14ne61087100 0.2 1019845
15:30+14ene6987100 0.4 1019703
18:30+14ene5890100 0.3 1019626
21:30+13ene4791100 0.4 1020481
11 august, thu
thu1100:30+13ene3692100 0.1 1020361
03:30+13ene3692100 0.2 1019359
06:30+13e3591100 0.1 1019362
09:30+14e3482100 0.1 1019555
12:30+16ese337589 0.0 1018786
15:30+16se457770 0.1 1017739
18:30+15se4688100 0.1 1017482
21:30+14se3697100 0.2 1018363
12 august, fri
fri1200:30+15se3798100 0.1 1017373
03:30+15se3799100 0.2 1016376
06:30+15se379889 0.0 1016387
09:30+17sse489297 0.1 1016456
12:30+17sse4894100 0.1 1016425
15:30+21sse457838 0.1 1015634
18:30+21s3676100 0.0 1015348
21:30+18s3108764 0.0 1015275